星链-2140 (STARLINK-2140 )

导读

STARLINK-2140是美国SpaceX公司星链星座中的V1.0批次卫星,于2021年3月4日发射入轨。它重约227公斤,运行在340-614公里的近地轨道,轨道倾角53°,设计寿命约5年。配备Ku/Ka波段相控阵天线与氪离子推进系统,可提供全球高速卫星互联网接入,单星容量约20Gbps,支持用户下行速率50-200Mbps,延迟20-40毫秒,是第一代星链星座组网的重要组成部分,服役至今已接近设计寿命终点。

Basic Information
目录编号:
47730
目录名称:
STARLINK-2140
国际标识:
2021-017J
轨道中心:
EARTH
卫星名称:
星链-2140
卫星全名:
星链-2140 (STARLINK-2140 )
卫星状态:
在轨 (已飞行2010 天)
发射日期:
2021-03-04 UTC
国别 :
美国 (US)
星等 :
--
Orbit Information
数据来源 国际轨道数据
星历时间: 2026-09-04T16:00:02+0800
7小时前
查看轨道信息
半长轴: 6848.859km
偏心率: 0.0001227
轨道倾角: 53.158°
近地点辐角 92.772°
升交点赤经 105.627°
平近点角 350.275°
近地点: 469.881km
远地点: 471.563km
周期: 94.013分钟
每日圈数: 15.317061
Detailed Information
固有亮度:
5
最大亮度:
2.5
卫星平台:
Starlink V1.0
覆盖范围:
全球
运营商:
太空探索技术公司
运营商所在国:
美国
制造商(研发单位):
太空探索技术公司
制造商所在国:
美国
使用方式:
暂无
Satellite Introduction
星链(Starlink)计划是由太空探索技术公司(SpaceX)提出的一个巨型低轨卫星互联网星座项目,计划在2019年至2024年间在太空搭建由约1.2万颗卫星组成的“星链”网络,其中1584颗将部署在地球上空550千米处的近地轨道,并从2020年开始工作。该卫星仍在工作。
2D Orbit Map
3D Orbit Map
Orbit Altitude Analysis Chart
Orbit Inclination Analysis Chart
Orbit Comprehensive Analysis Chart
View Comprehensive Chart
Conjunction Data List
Event ID Objects TCA Miss Dist (km) Collision Risk Probability Collision Risk Index (CRI) Action
CDM_260905-201504-773006-862821
MISR-C-1 (68628)
2026-09-05T
20:15:27+0000
1.680 km
极远距离
3.980591E-6 低风险 0.47
CDM_260905-054704-773006-552321
2026-09-05T
05:47:59+0000
2.677 km
极远距离
1.529851E-6 低风险 0.39
CDM_260906-052804-773005-350821
2026-09-06T
05:28:18+0000
2.773 km
极远距离
1.26238E-6 低风险 0.37
CDM_260904-162204-773005-365821
2026-09-04T
16:22:23+0000
2.887 km
极远距离
8.613409E-7 极低风险 0.34